OBJECT G, 59779

Orbit data source: Space-Track

You're viewing an Uncataloged Satellite

Recently launched and/or uncataloged satellites may have evolving metadata. Metadata may include but not limited to: Owner, Maufacturer, Bus, Motor, and Mission.

OBJECT G, 59779 is a satellite owned by Byuro 1440 (CIS) in SSO that was launched on Thu, 16 May 2024 UTC via a SOYUZ-2-1B launch vehicle from the Plesetsk Missile And Space Complex (PKMTR). Unknown objects in Earth's orbit typically refer to objects detected orbiting the Earth but have not yet been identified or cataloged. These objects could be anything from previously untracked satellites, spent rocket stages, debris from satellite collisions, or even natural meteoroids temporarily captured by Earth's gravity.

Loading next visibility...
Identifier
59779, 2024-092G
Orbit
SSO
Last TLE update
8 hours ago
Origin
Flag of CISBureau 1440 (CIS)
Manufacturer
Byuro 1440
Mission
Operational spacecraft
Bus & Motor
RASSVET-2, Unknown motor
Mass
~200 kg wet, ~200 kg dry
Launch date (UTC)
2024-05-16 (1 year ago)
Launch vehicle
SOYUZ-2-1B
Launch site
Plesetsk Missile And Space Complex (PKMTR)
Object type
Unknown
Shape & HBR
Unknown
Radar Cross Section
Large (>1 m²)

Expand to show TLE details & history

TLE from 8 hours ago
0 OBJECT G
1 59779U 24092G   25191.76771937  .00000066  00000-0  41447-4 0  9995
2 59779  98.6396 306.8745 0013305 131.0246 229.2089 14.31625738 60044
Epoch: 2025-07-10T18:25Z
TLE epoch observation values (Epoch: 2025-07-10T18:25:30.953Z)
Latitude
-0.00008°
Longitude
101.56627°
Altitude
795.47 km
Speed
7.453 km/s
True Right ascension
20h 27m 29s
True Declination
0° 00' 00"
Sunlit
Object was in full shadow at epoch
Visualization orbit readout
Latitude
-44.99341°
Longitude
110.59597°
Altitude
813.138 km
Speed
7.441 km/s
Apparent Right ascension
23h 53m 50s
Apparent Declination
-51° 36' 49"
Sunlit
Object is in full shadow
Visualization observer readout
Local Sidereal Time
14:52:33
Azimuth
126.056° SE
Elevation
-57.31°
Doppler factor
1
Orbital elements
Apogee altitude
792.97 km
Perigee altitude
773.913 km
Semi-major axis
7,161.578 km
Eccentricity
0.00133
Inclination
98.6396°
RAAN
306.8745°
Arg. of periapsis
131.0246°
True anomaly
Unknown
Mean anomaly
229.2089°
Eccentric anomaly
Unknown
Mean motion
3.58121 °/min
Orbital period
100.52 mins
BSTAR
0.000041447
Loading maneuver chart data...
Loading SW <> Apogee altitude chart data...
Loading historical data...
Loading historical data...
Loading historical data...
Loading historical data...
Loading historical data...
Loading historical data...
Loading historical data...

OBJECT G Visibility forecast

Observer location: undefined°, undefined°

Span
Click to sort rows by Start time (UTC) header in descending order
Start Az.
Max El. time (UTC)
Max El. Az.
Max El.
End time (UTC)
End Az.
6 mins2025-07-11 06:19:58.566Z98.094° ESE2025-07-11 06:22:58.566Z60.39° ENE16.297°2025-07-11 06:25:58.566Z24.076° NE
8 mins2025-07-11 07:57:58.566Z182.421° SSW2025-07-11 08:01:58.566Z273.214° WNW40.765°2025-07-11 08:05:58.566Z336.802° NNW
8 mins2025-07-11 20:10:58.566Z31.648° NE2025-07-11 20:13:58.566Z83.616° E36.732°2025-07-11 20:18:58.566Z173.954° S
6 mins2025-07-11 21:50:58.566Z330.223° NNW2025-07-11 21:52:58.566Z302.908° NW18.607°2025-07-11 21:56:58.566Z251.143° W
|